Home > Weather > Qatif > Past weeks

Flag for Saudi Arabia Weather for the Past 2 Weeks in Qatif, Saudi Arabia

Now
86 °F

Clear.


Feels Like: 84 °F
Forecast: 77 / 93 °F
Wind: 3 mph from Southeast

Location: King Fahd International Airport

Current Time: Apr 29, 2016 at 8:59:57 PM

Latest Report: Apr 29, 2016 at 8:00 PM


Visibility: 10 mi

Pressure: 29.77 "Hg

Humidity: 33%

Dew Point: 54 °F

Location of QatifLocation

Historic Weather in Qatif — Graph

°F

Qatif Temperature Yesterday

Maximum temperature yesterday: 102 °F (at 3:00 PM)
Minimum temperature yesterday: 68 °F (at 5:00 AM)
Average temperature yesterday: 85 °F

High & Low Weather Summary for the Past Weeks

 TemperatureHumidityPressure
High106 °F (Apr 26, 2:00 PM)78% (Apr 14, 10:00 PM)30.01 "Hg (Apr 14, 10:00 PM)
Low64 °F (Apr 16, 4:00 AM)6% (Apr 26, 3:00 PM)29.65 "Hg (Apr 24, 2:00 PM)
Average82 °F35%29.84 "Hg
* Reported Apr 14 8:00 PM — Apr 29 8:00 PM, Qatif, Weather by CustomWeather, © 2016

Note: Actual official high and low records may vary slightly from our data, if they occured in-between our weather recording intervals... More about our weather records

Advertising

Qatif Weather History for the Previous 24 Hours

Scroll right to see more
 ConditionsComfort  
Time TempWeatherWind HumidityBarometerVisibility
8:00 PM
Fri, Apr 29
86 °FClear.3 mph33%29.77 "Hg10 mi
7:00 PM88 °FClear.8 mph31%29.74 "Hg10 mi
6:00 PM91 °FSunny.13 mph23%29.74 "Hg10 mi
5:00 PM93 °FSunny.14 mph19%29.74 "Hg10 mi
4:00 PM95 °FSunny.10 mph22%29.71 "Hg10 mi
3:00 PM95 °FSunny.14 mph23%29.71 "Hg10 mi
2:00 PM95 °FSunny.13 mph28%29.74 "Hg10 mi
1:00 PM97 °FSunny.12 mph16%29.74 "Hg10 mi
12:00 PM95 °FSunny.12 mph19%29.74 "Hg10 mi
11:00 AM93 °FSunny.12 mph21%29.77 "Hg10 mi
10:00 AM90 °FSunny.8 mph26%29.77 "Hg10 mi
9:00 AM88 °FScattered clouds.10 mph31%29.80 "HgN/A
8:00 AM84 °FScattered clouds.7 mph45%29.77 "HgN/A
7:00 AM81 °FScattered clouds.3 mph48%29.74 "HgN/A
6:00 AM77 °FScattered clouds.5 mph54%29.74 "HgN/A
5:00 AM75 °FPassing clouds.6 mph57%29.71 "HgN/A
4:00 AM77 °FPassing clouds.5 mph54%29.71 "HgN/A
3:00 AM75 °FPassing clouds.5 mph54%29.71 "HgN/A
2:00 AM73 °FClear.No wind57%29.71 "Hg10 mi
1:00 AM79 °FClear.7 mph45%29.71 "Hg10 mi
12:00 AM81 °FClear.8 mph39%29.71 "Hg10 mi
11:00 PM
Thu, Apr 28
82 °FClear.10 mph37%29.71 "Hg10 mi
10:00 PM82 °FClear.9 mph48%29.74 "Hg5 mi
9:00 PM84 °FClear.9 mph48%29.71 "Hg5 mi
8:00 PM86 °FClear.10 mph46%29.71 "Hg10 mi
Weather by CustomWeather, © 2016

See weather overviewHow to use our weather pages